Probability
27 25 25 27 29 30 32 32 32 32 32 30 28 24 17 12 8 6 4 3 3 3 3 3 1 0 0 0 0 0 0 0 0 0 0 0 0 0 0 0 0 0 0
24 23 23 25 28 28 29 30 30 29 28 27 26 22 18 12 7 4 4 3 3 3 3 3 2 0 0 0 0 0 0 0 0 0 0 0 0 0 0 0 0 0 0
19 20 21 22 24 24 23 24 24 23 23 23 22 20 16 11 6 3 3 3 3 3 3 3 1 0 0 0 0 0 0 0 0 0 0 0 0 0 0 0 0 0 0
14 15 18 19 19 20 19 19 18 18 19 18 18 17 14 10 7 4 3 3 3 3 3 3 1 0 0 0 0 0 0 0 0 0 0 0 0 0 0 0 0 0 0
8 10 12 14 17 18 17 16 14 14 14 13 13 13 11 8 6 5 3 3 3 3 3 3 2 0 0 0 0 0 0 0 0 0 0 0 0 0 0 0 0 0 0
4 5 7 10 14 15 13 12 10 9 10 9 9 9 7 5 4 4 2 1 2 2 2 2 1 0 0 0 0 0 0 0 0 0 0 0 0 0 0 0 0 0 0
2 3 4 7 11 11 9 8 7 8 9 8 6 5 5 4 3 3 1 0 1 1 1 1 0 0 0 0 0 0 0 0 0 0 0 0 0 0 0 0 0 0 0
2 3 4 6 8 8 7 7 7 8 10 9 6 4 3 3 3 2 1 0 0 0 0 0 0 0 0 0 0 0 0 0 0 0 0 0 0 0 0 0 0 0 0
3 3 4 5 6 6 7 8 8 9 10 10 7 4 3 3 3 2 1 0 0 0 0 0 0 0 0 0 0 0 0 0 0 0 0 0 0 0 0 0 0 0 0
3 2 2 4 4 6 8 10 10 9 8 8 7 5 3 3 2 1 0 0 0 0 0 0 0 0 0 0 0 0 0 0 0 0 0 0 0 0 0 0 0 0 0
3 2 2 3 4 6 9 10 9 8 7 7 6 6 4 3 2 0 0 0 0 0 0 0 0 0 0 0 0 0 0 0 0 0 0 0 0 0 0 0 0 0 0
3 3 3 4 6 7 9 9 7 7 6 6 6 6 5 4 2 1 0 0 0 0 0 0 0 0 0 0 0 0 0 0 0 0 1 1 1 1 1 1 1 1 1
4 4 5 6 7 9 10 10 9 8 7 7 7 7 7 6 4 3 2 1 1 0 0 0 0 0 0 0 0 1 1 1 1 1 2 2 2 2 2 2 2 2 2
6 7 7 6 8 10 12 14 13 11 10 9 9 9 9 8 6 5 5 3 2 1 0 0 0 0 0 0 1 2 2 2 2 2 2 2 2 2 2 2 2 2 2
7 8 7 7 8 10 12 13 14 14 14 12 10 10 10 9 7 6 6 6 3 1 1 0 0 1 1 1 1 2 2 1 1 1 1 1 1 1 1 1 1 1 1
6 7 7 8 9 10 10 11 13 16 16 14 12 11 11 10 9 8 9 8 4 2 2 1 0 1 1 1 1 1 1 0 0 0 0 0 0 0 0 0 0 0 0
5 6 7 7 7 7 8 10 15 18 18 17 15 14 13 11 11 11 11 9 6 4 2 1 0 1 1 0 0 0 0 0 0 0 0 0 0 0 0 0 0 0 0
7 7 6 5 4 4 4 8 15 20 21 20 18 15 13 13 12 12 11 9 8 6 3 1 0 0 0 0 0 0 0 0 0 0 0 0 0 0 0 0 0 0 0
8 7 5 3 3 2 3 7 13 19 22 22 20 16 14 13 12 11 10 8 8 8 5 2 0 0 0 0 0 0 0 0 0 0 0 0 0 0 0 0 0 0 0
6 5 3 2 2 2 4 8 12 15 17 18 18 17 15 13 10 9 9 7 5 5 4 2 0 0 0 0 0 0 0 0 0 0 0 0 0 0 0 0 0 0 0
4 3 3 2 1 1 3 7 10 9 9 9 10 12 12 9 7 6 6 5 3 2 2 1 0 0 0 0 0 0 0 0 0 0 0 0 0 0 0 0 0 0 0
2 2 2 2 1 1 3 5 6 5 3 3 4 5 5 4 3 3 2 2 1 0 0 0 0 0 0 0 0 0 0 0 0 0 0 0 0 0 0 0 0 0 0
1 1 1 1 1 2 3 3 4 3 2 2 2 2 2 1 1 1 0 0 0 0 0 0 0 0 0 0 0 0 0 0 0 0 0 0 0 0 0 0 0 0 0
1 1 0 0 1 3 3 2 2 1 1 1 1 1 1 0 0 0 0 0 0 0 0 0 0 0 0 0 0 0 0 0 0 0 0 0 0 0 0 0 0 0 0
2 1 0 0 1 2 2 1 0 0 0 0 0 0 0 0 0 0 0 0 0 0 0 0 0 0 0 0 0 0 0 0 0 0 0 0 0 0 0 0 0 0 0
1 1 0 0 1 1 1 0 0 0 0 0 0 0 0 0 0 0 0 0 0 0 0 0 0 0 0 0 0 0 0 0 0 0 0 0 0 0 0 0 0 0 0
Wind_Speed
6 6 8 10 10 9 9 10 10 8 8 6 6 5 5 4 3 3 5 5 5 6 5 4 4 4 3 3 3 2 2 1 1 2 3 3 2 1 1 1 1 1 2
6 6 7 8 9 10 10 10 10 8 7 6 5 4 5 4 4 3 4 5 6 6 5 5 4 3 3 3 3 2 2 1 1 2 2 3 4 4 2 1 0 0 0
9 9 8 9 9 10 11 11 10 9 8 7 5 5 4 3 2 3 3 4 5 5 5 6 5 4 3 3 2 3 3 1 2 1 3 3 1 2 3 2 1 1 0
8 8 9 9 11 11 10 10 10 9 8 8 8 8 6 5 5 4 3 3 5 6 6 6 5 4 3 3 3 3 2 3 1 1 1 2 3 2 1 3 3 2 1
9 9 10 10 10 11 11 10 10 9 8 8 8 8 5 4 4 4 5 4 3 5 6 6 5 5 4 4 3 3 3 2 2 1 1 2 2 2 3 1 3 3 2
9 9 9 8 8 8 9 10 9 8 8 8 8 8 8 7 7 6 5 4 3 3 4 5 5 5 4 4 3 3 3 2 2 2 1 2 2 1 2 1 1 2 3
10 9 10 10 10 10 10 10 10 9 8 9 8 8 8 9 9 8 7 5 3 3 4 5 5 4 4 4 4 3 3 3 3 2 1 1 2 2 2 2 1 1 3
10 11 11 11 11 12 11 11 11 9 9 8 8 7 8 6 6 7 7 6 5 5 6 6 6 5 5 5 4 3 2 3 3 2 2 1 1 1 2 3 2 1 3
12 12 12 11 11 12 11 11 11 9 8 8 7 7 7 7 7 7 6 5 4 5 6 6 6 6 5 5 4 3 3 3 3 2 2 1 1 1 1 2 3 4 1
12 12 12 11 11 11 10 10 10 10 9 8 8 7 7 7 7 6 7 6 6 6 7 7 6 6 5 5 4 3 3 3 3 2 3 2 1 1 1 1 2 3 4
13 13 12 11 11 10 11 11 10 9 9 9 7 7 6 6 6 6 7 7 6 7 8 8 7 6 6 5 5 4 4 4 3 3 3 3 2 2 1 1 1 2 3
12 12 12 11 11 11 12 12 11 11 10 10 8 8 7 6 6 7 7 7 7 8 8 8 8 7 7 6 6 6 5 5 5 4 4 4 3 3 2 2 2 2 3
11 10 11 11 11 12 12 12 12 12 10 10 9 8 8 8 8 7 7 7 7 7 8 8 8 8 7 7 7 7 6 6 6 6 6 6 5 5 4 4 3 3 3
10 11 11 10 11 11 12 12 12 11 11 10 9 9 9 9 8 7 7 8 8 8 8 8 8 8 7 8 8 7 7 6 6 6 6 6 6 7 6 5 5 4 4
9 10 10 9 9 9 9 10 11 10 11 10 10 10 8 7 7 7 7 7 8 9 8 7 7 6 6 7 7 7 7 7 6 6 6 7 8 10 8 6 6 5 4
10 9 9 9 9 9 10 10 10 10 10 11 11 10 9 9 8 8 7 7 7 7 7 7 7 7 7 8 10 8 6 6 6 6 6 6 7 9 11 12 11 9 7
8 8 8 8 9 9 9 10 11 10 10 11 10 10 10 9 8 8 7 8 8 7 7 7 7 7 7 10 11 11 6 6 6 6 5 5 5 6 5 8 10 11 13
6 6 5 4 4 5 6 7 7 8 9 9 8 8 8 8 7 6 7 7 6 6 6 6 7 6 7 11 11 10 6 5 5 5 5 5 6 5 5 5 6 7 8
5 4 4 4 4 3 4 5 6 7 7 7 7 7 7 6 6 6 6 6 5 5 6 5 6 6 6 9 10 9 4 4 5 5 5 6 6 8 8 5 6 7 8
6 5 5 6 5 3 4 6 5 5 4 4 4 5 5 6 6 7 6 4 4 5 5 5 5 6 6 7 9 9 4 4 4 4 4 6 7 7 6 5 5 8 9
8 7 8 7 5 5 8 8 7 5 4 4 4 4 4 4 5 4 3 4 4 3 3 3 3 3 4 4 6 7 4 4 4 4 4 4 6 7 7 6 6 10 9
8 8 9 8 7 7 8 9 6 4 4 5 4 4 3 2 2 3 2 3 4 3 3 2 1 1 1 2 4 6 7 5 4 4 3 4 6 8 9 8 10 13 10
8 8 9 10 8 7 7 8 4 4 5 5 4 4 4 2 2 3 3 3 2 3 2 2 2 1 0 1 2 4 6 6 4 4 6 7 9 9 8 10 12 9 5
8 8 9 10 8 7 7 6 5 5 6 5 4 3 3 3 3 3 2 3 2 2 2 2 2 1 1 1 1 1 2 3 4 4 5 7 8 7 8 8 7 5 5
7 7 8 8 7 6 7 6 5 6 6 4 3 2 2 2 2 2 2 2 2 3 4 3 3 3 3 3 4 3 2 2 2 2 2 2 3 3 4 4 5 5 4
7 8 8 7 6 6 6 5 5 5 5 4 3 2 1 1 1 1 1 1 1 2 4 4 4 3 4 4 4 5 4 3 3 2 2 3 4 4 5 5 5 5 5
Wind_Direction
177 162 163 162 159 156 156 153 157 160 151 143 143 142 146 150 148 154 149 141 136 135 131 131 129 124 123 128 119 100 70 27 28 47 6 350 354 30 229 211 180 199 204
161 166 171 167 164 164 158 154 160 166 159 152 151 148 144 149 151 150 145 145 143 143 140 135 139 136 123 110 96 92 88 21 47 103 76 18 1 353 357 358 155 199 160
170 173 174 172 167 170 169 165 167 167 161 150 140 127 108 101 117 142 154 160 148 142 138 144 141 140 133 134 126 115 116 88 16 78 130 127 197 316 335 352 2 345 43
174 177 180 177 178 179 172 163 164 165 162 155 150 151 152 159 175 167 166 163 150 147 147 147 142 140 136 140 142 125 123 114 70 17 43 133 155 135 348 334 339 338 353
180 183 183 181 181 177 172 165 165 167 166 162 159 157 156 163 154 150 155 158 155 156 152 147 141 142 141 145 135 123 116 119 124 110 70 60 59 87 123 322 328 338 328
182 184 180 172 173 171 168 163 166 170 171 165 163 163 165 164 158 162 165 165 159 154 153 148 146 147 146 150 151 146 134 131 124 121 116 123 115 120 123 150 291 310 306
180 178 174 173 173 174 173 169 171 177 177 171 173 172 171 169 171 171 172 168 165 169 173 155 155 154 156 157 149 144 146 146 141 147 143 140 154 161 145 136 179 321 311
182 180 179 176 175 176 176 175 176 177 179 176 178 176 170 170 175 175 172 177 177 178 172 165 165 165 159 158 150 147 162 154 153 158 152 146 164 157 155 154 141 49 339
181 180 180 179 178 178 179 177 175 174 181 179 172 172 170 169 171 172 170 173 177 176 170 168 168 169 164 159 152 160 174 159 165 168 163 164 190 153 153 149 149 146 159
179 179 180 181 182 181 176 173 173 178 180 177 176 175 173 172 170 167 173 176 177 172 167 169 169 169 168 165 158 164 175 167 180 181 175 189 202 175 152 147 149 151 162
182 181 181 180 179 176 175 176 176 174 175 176 177 173 175 173 167 171 178 179 177 172 171 172 171 173 176 173 170 180 180 184 196 196 190 210 201 193 204 178 163 169 160
183 181 179 177 176 177 178 180 181 182 183 179 177 179 179 177 178 180 182 178 176 177 176 174 175 181 183 182 181 189 188 189 199 208 202 219 213 210 215 207 216 215 195
180 177 178 180 180 180 182 185 185 187 185 179 179 180 182 184 187 186 183 178 175 177 178 177 182 187 187 189 192 193 196 200 206 207 206 214 205 217 220 217 222 228 221
179 178 178 181 184 184 184 185 189 188 184 182 182 185 189 192 192 187 183 182 179 179 185 188 191 192 192 194 197 197 202 207 213 213 213 215 208 213 216 220 223 224 228
171 174 176 177 180 184 188 189 189 187 184 181 187 193 191 192 192 189 187 186 187 191 192 193 197 196 195 200 200 202 205 209 218 223 222 223 220 218 215 217 216 215 222
175 175 174 171 176 182 187 188 189 186 180 184 192 191 186 192 195 194 190 189 192 193 190 193 195 199 207 207 206 206 211 210 217 227 234 238 236 234 232 233 226 212 214
166 166 173 178 184 189 189 190 191 185 182 190 193 190 189 192 196 196 189 191 194 193 194 196 195 202 210 207 207 211 207 215 221 224 230 244 244 238 239 246 246 238 234
139 140 147 157 174 179 184 189 180 177 183 188 192 192 190 193 193 193 197 202 196 194 197 200 199 200 211 207 208 210 208 216 224 223 222 230 247 248 239 245 253 252 250
114 119 128 141 145 149 162 153 158 165 171 179 184 184 181 184 185 196 204 204 198 198 200 196 193 200 216 212 211 204 202 221 236 239 237 233 242 252 249 243 253 265 268
89 91 88 83 87 92 110 113 121 126 138 154 157 155 162 175 187 199 201 201 203 206 201 196 192 198 213 214 212 201 197 221 243 253 251 247 252 264 262 239 243 259 267
83 83 82 79 75 82 93 94 91 96 112 111 110 116 141 174 184 183 181 179 184 184 188 191 195 195 204 205 202 199 196 213 233 245 250 253 262 269 268 252 240 249 259
79 81 83 77 65 72 90 89 87 90 89 87 87 89 90 112 139 139 164 169 163 158 168 165 170 204 208 191 197 205 213 214 222 242 249 255 267 272 272 264 256 261 266
82 81 83 78 66 65 84 91 82 80 82 81 75 75 78 79 100 122 123 107 115 131 142 142 164 206 216 192 193 209 222 226 226 242 249 259 267 276 273 266 270 273 260
84 82 83 80 68 60 64 69 67 76 83 78 67 65 81 83 81 96 112 124 139 145 159 165 180 203 243 244 223 238 246 247 250 264 274 280 281 277 272 277 277 261 250
80 82 84 82 74 66 63 60 64 72 76 74 69 64 63 81 84 95 135 159 193 183 177 190 188 190 229 241 216 206 223 223 238 263 289 293 298 297 293 289 282 277 275
84 81 78 77 72 68 62 54 64 75 76 63 51 54 56 62 80 88 30 343 262 225 207 200 190 206 219 226 228 236 247 252 231 194 254 270 274 275 279 282 283 278 272